TimeCET,TemperatureF,Dew PointF,Humidity,Sea Level PressureIn,VisibilityMPH,Wind Direction,Wind SpeedMPH,Gust SpeedMPH,PrecipitationIn,Events,Conditions,WindDirDegrees,DateUTC
12:20 AM,46.4,41.0,81,30.33,6.2,SSW,10.4,-,N/A,,Overcast,200,2012-11-12 23:20:00
12:50 AM,46.4,41.0,81,30.33,6.2,South,11.5,-,N/A,,Overcast,190,2012-11-12 23:50:00
1:00 AM,46,41,77,30.34,11,South,11.2,,,,Overcast,190,2012-11-13 00:00:00
1:20 AM,46.4,41.0,81,30.33,5.6,South,10.4,-,N/A,,Overcast,190,2012-11-13 00:20:00
1:50 AM,44.6,42.8,93,30.33,1.7,South,11.5,-,N/A,Rain,Light Rain,190,2012-11-13 00:50:00
2:20 AM,44.6,42.8,93,30.33,1.6,South,10.4,-,N/A,Rain,Light Rain,190,2012-11-13 01:20:00
2:50 AM,44.6,42.8,93,30.33,1.4,South,9.2,-,N/A,,Drizzle,190,2012-11-13 01:50:00
3:20 AM,44.6,42.8,93,30.33,1.4,South,9.2,-,N/A,,Drizzle,190,2012-11-13 02:20:00
3:50 AM,44.6,42.8,93,30.33,1.9,South,9.2,-,N/A,,Light Drizzle,190,2012-11-13 02:50:00
4:00 AM,45,43,91,30.35,2,South,8.9,,,,Mist,190,2012-11-13 03:00:00
4:20 AM,44.6,42.8,93,30.33,-9999.0,SSW,9.2,-,N/A,,Overcast,200,2012-11-13 03:20:00
4:50 AM,44.6,42.8,93,30.33,1.4,SSW,9.2,-,N/A,Rain,Light Rain,200,2012-11-13 03:50:00
5:20 AM,44.6,42.8,93,30.36,3.7,South,8.1,-,N/A,,Overcast,190,2012-11-13 04:20:00
5:50 AM,44.6,42.8,93,30.36,4.3,SSW,9.2,-,N/A,,Overcast,200,2012-11-13 04:50:00
6:20 AM,46.4,42.8,87,30.36,4.3,SSW,9.2,-,N/A,,Overcast,200,2012-11-13 05:20:00
6:50 AM,46.4,44.6,93,30.36,3.7,SSW,10.4,-,N/A,,Mostly Cloudy,210,2012-11-13 05:50:00
7:00 AM,46,44,89,30.38,4,SSW,11.2,,,,Partly Cloudy,210,2012-11-13 06:00:00
7:20 AM,46.4,44.6,93,30.36,3.7,SSW,8.1,-,N/A,,Mostly Cloudy,210,2012-11-13 06:20:00
7:50 AM,46.4,44.6,93,30.39,3.7,SSW,9.2,-,N/A,,Mostly Cloudy,210,2012-11-13 06:50:00
8:20 AM,46.4,44.6,93,30.39,-9999.0,SSW,8.1,-,N/A,,Mostly Cloudy,210,2012-11-13 07:20:00
8:50 AM,46.4,44.6,93,30.39,-9999.0,SSW,9.2,-,N/A,,Mostly Cloudy,200,2012-11-13 07:50:00
9:20 AM,46.4,44.6,93,30.42,4.3,SSW,8.1,-,N/A,,Mostly Cloudy,210,2012-11-13 08:20:00
9:50 AM,46.4,44.6,93,30.42,3.7,SSW,8.1,-,N/A,,Mostly Cloudy,210,2012-11-13 08:50:00
10:00 AM,47,45,88,30.43,4,SSW,8.9,,,,Mostly Cloudy,210,2012-11-13 09:00:00
10:20 AM,46.4,44.6,93,30.42,4.3,SSW,9.2,-,N/A,,Mostly Cloudy,210,2012-11-13 09:20:00
10:50 AM,48.2,44.6,87,30.42,5.0,SSW,8.1,-,N/A,,Mostly Cloudy,210,2012-11-13 09:50:00
11:20 AM,48.2,44.6,87,30.42,5.0,SSW,9.2,-,N/A,,Mostly Cloudy,210,2012-11-13 10:20:00
11:50 AM,48.2,44.6,87,30.42,5.0,SSW,8.1,-,N/A,,Mostly Cloudy,210,2012-11-13 10:50:00
12:20 PM,48.2,44.6,87,30.42,5.0,SSW,5.8,-,N/A,,Mostly Cloudy,200,2012-11-13 11:20:00
12:50 PM,48.2,44.6,87,30.42,5.0,SSW,6.9,-,N/A,,Mostly Cloudy,200,2012-11-13 11:50:00
1:00 PM,49,45,82,30.44,5,SSW,6.7,,,,Mostly Cloudy,200,2012-11-13 12:00:00
1:20 PM,48.2,46.4,93,30.42,5.0,SSW,9.2,-,N/A,,Mostly Cloudy,200,2012-11-13 12:20:00
1:50 PM,50.0,46.4,87,30.42,5.0,SW,5.8,-,N/A,,Mostly Cloudy,220,2012-11-13 12:50:00
2:20 PM,50.0,46.4,87,30.42,5.0,SSW,8.1,-,N/A,,Mostly Cloudy,210,2012-11-13 13:20:00
2:50 PM,50.0,46.4,87,30.42,5.6,SSW,5.8,-,N/A,,Mostly Cloudy,210,2012-11-13 13:50:00
3:20 PM,50.0,46.4,87,30.42,6.2,South,4.6,-,N/A,,Mostly Cloudy,190,2012-11-13 14:20:00
3:50 PM,50.0,46.4,87,30.42,6.2,South,4.6,-,N/A,,Overcast,190,2012-11-13 14:50:00
4:00 PM,50,46,83,30.43,7,South,4.5,,,,Overcast,190,2012-11-13 15:00:00
4:20 PM,50.0,46.4,87,30.42,6.2,South,5.8,-,N/A,,Overcast,180,2012-11-13 15:20:00
4:50 PM,50.0,46.4,87,30.42,6.2,South,4.6,-,N/A,,Overcast,180,2012-11-13 15:50:00
5:20 PM,50.0,46.4,87,30.42,6.2,South,2.3,-,N/A,,Overcast,180,2012-11-13 16:20:00
5:50 PM,50.0,46.4,87,30.42,6.2,South,1.2,-,N/A,,Mostly Cloudy,170,2012-11-13 16:50:00
6:20 PM,50.0,46.4,87,30.42,6.2,SSE,2.3,-,N/A,,Mostly Cloudy,160,2012-11-13 17:20:00
6:50 PM,48.2,46.4,93,30.42,6.2,SSE,2.3,-,N/A,,Mostly Cloudy,160,2012-11-13 17:50:00
7:00 PM,48,47,96,30.44,6,SSE,2.2,,,,Overcast,160,2012-11-13 18:00:00
7:20 PM,48.2,46.4,93,30.42,6.2,South,1.2,-,N/A,,Mostly Cloudy,190,2012-11-13 18:20:00
7:50 PM,48.2,46.4,93,30.42,5.6,ESE,2.3,-,N/A,,Mostly Cloudy,120,2012-11-13 18:50:00
8:20 PM,48.2,46.4,93,30.42,5.6,SSE,2.3,-,N/A,,Mostly Cloudy,150,2012-11-13 19:20:00
8:50 PM,48.2,46.4,93,30.42,5.6,SE,2.3,-,N/A,,Mostly Cloudy,140,2012-11-13 19:50:00
9:20 PM,48.2,46.4,93,30.42,5.6,ESE,2.3,-,N/A,,Mostly Cloudy,110,2012-11-13 20:20:00
9:50 PM,48.2,46.4,93,30.42,5.6,SE,2.3,-,N/A,,Mostly Cloudy,140,2012-11-13 20:50:00
10:00 PM,47,46,97,30.44,5,SE,2.2,,,,Mostly Cloudy,140,2012-11-13 21:00:00
10:20 PM,46.4,44.6,93,30.42,5.0,SSE,2.3,-,N/A,,Mostly Cloudy,150,2012-11-13 21:20:00
10:50 PM,46.4,44.6,93,30.42,3.7,SSE,2.3,-,N/A,,Mostly Cloudy,150,2012-11-13 21:50:00
11:20 PM,46.4,46.4,100,30.42,-9999.0,SE,3.5,-,N/A,,Overcast,140,2012-11-13 22:20:00
11:50 PM,46.4,46.4,100,30.42,-9999.0,SSE,3.5,-,N/A,,Overcast,160,2012-11-13 22:50:00